Regional Weather Roundup
Issued by NWS Northern Indiana

Home | Current Version | Previous Version | Graphics & Text | Print | Product List | Glossary On
Versions: 1 2 3 4 5 6 7 8 9 10 11 12 13 14 15 16 17 18 19 20 21 22 23 24 25 26 27 28 29 30 31 32 33 34 35 36 37 38 39 40 41 42 43 44 45 46 47 48 49 50
610
ASUS43 KIWX 260410
RWRIWX

KIWX WEATHER ROUNDUP
NATIONAL WEATHER SERVICE NORTHERN INDIANA
1100 PM EST SAT FEB 25 2017

NOTE: "FAIR" INDICATES FEW OR NO CLOUDS BELOW 12,000 FEET WITH NO
SIGNIFICANT WEATHER AND/OR OBSTRUCTIONS TO VISIBILITY.

* THESE STATIONS ARE NOT UNDER NWS QUALITY CONTROL. THEY ALSO MAY NOT
  REPORT WEATHER SUCH AS PRECIPITATION OR FOG.

INZ001>027-260500-
NORTHERN INDIANA

CITY           SKY/WX    TMP DP  RH WIND       PRES   REMARKS
GARY*          CLEAR     26  14  60 W8        30.05R WCI  17
VALPARAISO     CLOUDY    25  16  68 W8        30.04R WCI  16
MICHIGAN CITY* CLOUDY    28  16  59 NW9       30.03R WCI  20
LAPORTE*       CLOUDY    26  16  65 NW6       30.03R WCI  19
KNOX*          CLOUDY    27  -4  26 NW9       30.03R WCI  17
SOUTH BEND     CLOUDY    25  16  68 W8        30.01R WCI  16
GOSHEN         CLOUDY    26  15  63 W12       30.00R WCI  16
MONTICELLO*    CLEAR     25  17  73 W6        30.05R WCI  18
LOGANSPORT*    CLOUDY    27  19  74 W8        30.05R WCI  18
ROCHESTER*     CLOUDY    30  18  59 W7        30.03R WCI  23
WARSAW*        CLOUDY    27  16  63 W12       30.01S WCI  16
ANGOLA*        CLOUDY    23  19  86 W7        29.97S WCI  15
FORT WAYNE     FLURRIES  27  18  69 W13G21    30.00S WCI  16
HUNTINGTON*    CLOUDY    26  16  65 W8        30.01S WCI  18
PERU/GRISSOM   CLOUDY    27  16  65 NW14      30.01R WCI  15
MARION*        CLOUDY    27  19  71 NW13      30.03R WCI  16

$$
INZ028>050-260500-
CENTRAL INDIANA

CITY           SKY/WX    TMP DP  RH WIND       PRES   REMARKS
LAFAYETTE      CLEAR     23  18  81 W6        30.07R WCI  16
KOKOMO*        CLOUDY    27  18  69 W16       30.04R WCI  15
MUNCIE*        PTCLDY    28  17  63 W10       30.02R WCI  19
INDIANAPOLIS   PTCLDY    26  16  65 W10       30.06R WCI  16

$$
MIZ043>046-050>051-056>058-064>065-071>073-077>080-260500-
SOUTHWEST LOWER MICHIGAN

CITY           SKY/WX    TMP DP  RH WIND       PRES   REMARKS
BATTLE CREEK   FLURRIES  22  17  81 W5        29.97R WCI  16
BENTON HARBOR  CLOUDY    27  14  58 NW9       30.01R WCI  18
COLDWATER*     FLURRIES  23  19  83 W7        29.98R WCI  15
HILLSDALE*     FLURRIES  21  18  86 W14G21    29.95R WCI   8
HOLLAND        CLOUDY    26  16  65 W8        29.98R WCI  18
GRAND RAPIDS   FLURRIES  24  16  71 W12       29.95R WCI  13
KALAMAZOO      CLOUDY    24  15  68 W7        29.98R WCI  16
STURGIS*       LGT SNOW  24  19  84 W5        29.98R WCI  18
THREE RIVERS*  LGT SNOW  24  19  83 W3        30.00R

$$
OHZ001>008-015>018-024>025-260500-
NORTHWEST OHIO

CITY           SKY/WX    TMP DP  RH WIND       PRES   REMARKS
WAUSEON*       FLURRIES  25  19  80 W14       29.99R WCI  13
DEFIANCE       CLOUDY    25  17  72 W10G20    30.01R WCI  15
FINDLAY        CLOUDY    28  17  63 W14       29.99R WCI  17
TOLEDO EXPRESS CLOUDY    25  16  68 W15       29.99R WCI  13
TOLEDO METCALF CLOUDY    27  14  58 W16       30.00R WCI  15
LIMA           CLOUDY    27  20  75 NW15      29.99R WCI  15

$$
AND FOR LAKE MICHIGAN COASTAL AND OPEN LAKE BUOY OBSERVATIONS

STATION/POSITION TEMP    WIND        PRES    VSBY  WAVE
                 AIR SEA DIR/SP/G                  HT/PER
                 (F)     (DEG/KT/KT) (MB)    (MI)  (FT/S)
CALUMET HARBOR    25     260/  6/ 10 1016.5R
MICHIGAN CITY     27     280/ 17/ 20   N/A
BURNS HARBOR      27     300/ 12/ 18 1017.3R
SAINT JOSEPH      28     280/ 14/ 18 1017.3

$$
&&




USA.gov is the U.S. government's official web portal to all federal, state and local government web resources and services.